Simultaneous Nadir Overpasses (SNOs) Predictions

Prediction of SNOs between AQUA and NOAA-19 Satellite Orbit:

Table of predicted SNOs for the next 14.0 days since TLE Epoch: 2/6/2021
Index Date (AQUA) Time (AQUA) Lat,Lon (AQUA) SZA (AQUA ) Date (NOAA-19) Time (NOAA-19) Lat,Lon (NOAA-19) SZA (NOAA-19 ) Distance(km) Time Diff (sec)
1 02/08/2021 06:59:44 79.17, 50.30 95.26 02/08/2021 06:59:37 79.15, 50.34 95.24 2.31 7
2 02/10/2021 12:33:28 -79.14, 147.01 85.50 02/10/2021 12:32:47 -79.15, 147.12 85.49 2.22 41
3 02/10/2021 13:22:55 79.16, -45.48 94.53 02/10/2021 13:23:49 79.17, -45.47 94.51 0.29 54
4 02/12/2021 18:07:12 79.13,-116.33 93.75 02/12/2021 18:06:03 79.11,-116.44 93.77 3.39 69
5 02/12/2021 18:56:39 -79.14, 51.22 86.25 02/12/2021 18:57:00 -79.15, 51.17 86.25 1.26 21
6 02/15/2021 00:30:23 79.13, 147.86 92.98 02/15/2021 00:30:15 79.12, 147.73 92.99 3.00 8
7 02/17/2021 06:04:07 -79.11,-115.46 87.82 02/17/2021 06:03:27 -79.11,-115.60 87.80 2.89 40
8 02/17/2021 06:53:34 79.14, 52.03 92.20 02/17/2021 06:54:27 79.14, 51.89 92.20 3.07 53
9 02/19/2021 11:37:51 79.11, -18.87 91.39 02/19/2021 11:36:40 79.11, -18.84 91.41 0.78 71



Historial Predications of SNOs between AQUA and NOAA-19
